Location: Austin
(30.3000°N, 97.7500°W)
Time: 05:51:42
(UTC-06:00)

In-Cosmos 22 Rocket - Pass Details

Date: 05 February 2026
Orbit: 790 x 885 km, 81.2° (Epoch: 15 February)

Event Time Altitude Azimuth Distance (km) Brightness Sun altitude
Rises 05:59:14 0° 351° (N) 3,471 7.2 -17.6°
Reaches altitude 10° 06:01:40 10° 350° (N) 2,538 6.5 -17.1°
Maximum altitude 06:07:28 81° 264° (W) 898 4.2 -15.8°
Drops below altitude 10° 06:13:15 10° 178° (S) 2,534 6.8 -14.6°
Sets 06:15:41 0° 177° (S) 3,466 7.6 -14.1°
